Home   Weather   Moncton   Past weeks

Flag for Canada Past Weather in Moncton, New Brunswick, Canada — Yesterday and Last 2 Weeks

Now
19 °F

Passing clouds.


Feels Like: 14 °F
Forecast: 11 / 31 °F
Wind: 3 mph from East

Location: Moncton

Current Time: Jan 19, 2017 at 6:45:34 am

Latest Report: Jan 19, 2017 at 6:00 am


Visibility: 15 mi

Pressure: 30.04 "Hg

Humidity: 86%

Dew Point: 16 °F

Location of MonctonLocation

Past Weather in Moncton — Graph

°F

Moncton Temperature Yesterday

Maximum temperature yesterday: 25 °F (at 3:00 pm)
Minimum temperature yesterday: 10 °F (at 1:00 am)
Average temperature yesterday: 16 °F

High & Low Weather Summary for the Past Weeks

 TemperatureHumidityPressure
High46 °F (Jan 11, 3:00 pm)100% (Jan 4, 10:00 am)30.72 "Hg (Jan 4, 10:00 am)
Low-8 °F (Jan 9, 6:00 am)37% (Jan 13, 3:00 pm)29.13 "Hg (Jan 4, 2:19 pm)
Average21 °F75%30.07 "Hg
* Reported Jan 4 5:00 am — Jan 19 5:00 am, Moncton, Weather by CustomWeather, © 2017

Note: Actual official high and low records may vary slightly from our data, if they occured in-between our weather recording intervals... More about our weather records

Advertising

Moncton Weather History for the Previous 24 Hours

Scroll right to see more
 ConditionsComfort  
Time TempWeatherWind HumidityBarometerVisibility
5:00 am
Thu, Jan 19
19 °FPassing clouds.2 mph86%30.04 "Hg15 mi
4:00 am19 °FPassing clouds.No wind86%30.06 "Hg15 mi
3:00 am19 °FPassing clouds.3 mph86%30.07 "Hg15 mi
2:00 am18 °FPassing clouds.6 mph86%30.10 "Hg15 mi
1:00 am18 °FPassing clouds.6 mph86%30.11 "Hg15 mi
12:00 am14 °FPassing clouds.5 mph92%30.12 "Hg15 mi
11:00 pm
Wed, Jan 18
10 °FPassing clouds.3 mph92%30.14 "Hg15 mi
10:00 pm16 °FClear.5 mph86%30.15 "Hg15 mi
9:00 pm14 °FClear.2 mph92%30.16 "Hg15 mi
8:00 pm14 °FClear.6 mph85%30.16 "Hg15 mi
7:00 pm14 °FPassing clouds.6 mph85%30.17 "Hg15 mi
6:00 pm16 °FPassing clouds.7 mph86%30.18 "Hg15 mi
5:00 pm19 °FScattered clouds.6 mph73%30.17 "Hg15 mi
4:00 pm21 °FBroken clouds.10 mph74%30.19 "Hg15 mi
3:00 pm25 °FBroken clouds.7 mph59%30.19 "Hg15 mi
2:00 pm23 °FBroken clouds.5 mph63%30.20 "Hg15 mi
1:00 pm23 °FPartly sunny.8 mph63%30.22 "Hg15 mi
12:52 pm23 °FPartly sunny.7 mph68%30.22 "Hg15 mi
12:00 pm21 °FLight snow. Overcast.9 mph68%30.25 "Hg15 mi
11:00 am19 °FLight snow. Overcast.9 mph73%30.27 "Hg15 mi
10:00 am19 °FLight snow. Overcast.5 mph79%30.29 "Hg10 mi
9:00 am16 °FLight snow. Overcast.No wind79%30.30 "Hg10 mi
8:00 am14 °FLight snow. Overcast.2 mph85%30.30 "Hg12 mi
7:00 am14 °FLight snow. Overcast.3 mph79%30.30 "Hg15 mi
6:00 am12 °FSnow flurries. Passing clouds.3 mph85%30.29 "Hg15 mi
Weather by CustomWeather, © 2017

See weather overviewHow to use our weather pages